Terug naar catalogus

COSMOS 2251 DEB

ActiefVLEO
NORAD 35891·DEBRIS·🇷🇺 Russia

Gelanceerd Jun 16, 1993 vanaf Plesetsk Cosmodrome

Loading…

Volgende Passages (komende 24 uur)

TLE

VerouderdSource: Space-Track

Epoch: Sep 7, 2026, 06:05 UTC

1 35891U 93036AUE 26250.25366097  .00213392  00000-0  12355-2 0  9998
2 35891  73.9700 222.2369 0021866 259.4374 100.4390 15.77552200713829

Volg COSMOS 2251 DEB in realtime met AllMySat

Download on the App Store